Howell, MI

10:52 PM EDT on May 22, 2017 (GMT -0400)
Livingston County

Weather History for KOZW - November, 2013

Change the Weather History Date:

Saturday, November 9, 2013

  Actual Average Record
Temperature  
Mean Temperature 46 °F -  
Max Temperature 55 °F 48 °F 77 °F (1999)
Min Temperature 37 °F 32 °F 15 °F (2003)
Degree Days  
Heating Degree Days 20    
Moisture  
Dew Point 35 °F    
Average Humidity 63    
Maximum Humidity 75    
Minimum Humidity 51    
Precipitation  
Precipitation 0.00 in - - ()
Sea Level Pressure  
Sea Level Pressure 29.90 in    
Wind  
Wind Speed 12 mph (SW)    
Max Wind Speed 22 mph    
Max Gust Speed 33 mph    
Visibility 10 miles    
Events      
Averages and records for this station are not official NWS values.
T = Trace of Precipitation, MM = Missing Value Source: NWS Daily Summary

Daily Weather History Graph

Daily Weather History Graph

Search for Another Location

Airport or City:

Trip Planner

Search our weather history database for the weather conditions in past years. The results will help you decide how hot, cold, wet, or windy it might be!

Date:

Astronomy

Nov. 09, 2013 Rise Set
Actual Time 7:20 AM EST 5:18 PM EST
Civil Twilight 6:50 AM EST 5:48 PM EST
Nautical Twilight 6:16 AM EST 6:22 PM EST
Astronomical Twilight 5:43 AM EST 6:55 PM EST
Moon 12:55 PM EST (11/9) 11:50 PM EST (11/9)
Length of Visible Light 10h 58m
Length of Day
9h 58m
Waxing Crescent, 44% of the Moon is Illuminated
Nov 9
Waxing Crescent
Nov 10
First Quarter
Nov 17
Full
Nov 25
Last Quarter
Dec 2
New

Hourly Weather History & Observations

Time (EST) Temp. Windchill Dew Point Humidity Pressure Visibility Wind Dir Wind Speed Gust Speed Precip Events Conditions
12:14 AM 37.9 °F 33.5 °F 30.0 °F 73% 30.14 in 10.0 mi South 5.8 mph - N/A   Scattered Clouds
12:35 AM 37.4 °F 32.8 °F 30.0 °F 75% 30.14 in 10.0 mi SSE 5.8 mph - N/A   Clear
12:54 AM 37.6 °F 32.3 °F 30.2 °F 75% 30.13 in 10.0 mi SSE 6.9 mph - N/A   Clear
1:14 AM 37.8 °F 31.8 °F 30.4 °F 75% 30.11 in 10.0 mi SSE 8.1 mph - N/A   Clear
1:35 AM 38.1 °F 31.2 °F 30.2 °F 73% 30.10 in 10.0 mi SSE 10.4 mph - N/A   Clear
1:54 AM 38.3 °F 32.5 °F 30.6 °F 74% 30.09 in 10.0 mi SSE 8.1 mph - N/A   Scattered Clouds
2:14 AM 38.3 °F 32.5 °F 30.6 °F 74% 30.09 in 10.0 mi SSE 8.1 mph - N/A   Scattered Clouds
2:35 AM 38.8 °F 32.6 °F 30.7 °F 73% 30.08 in 10.0 mi SSE 9.2 mph - N/A   Mostly Cloudy
2:54 AM 38.8 °F 32.6 °F 30.7 °F 73% 30.07 in 10.0 mi SSE 9.2 mph - N/A   Overcast
3:14 AM 39.4 °F 32.7 °F 30.9 °F 72% 30.05 in 10.0 mi SSE 10.4 mph - N/A   Overcast
3:35 AM 39.4 °F 32.7 °F 30.9 °F 72% 30.03 in 10.0 mi SSE 10.4 mph - N/A   Overcast
3:54 AM 39.6 °F 33.0 °F 30.7 °F 71% 30.03 in 10.0 mi SSE 10.4 mph - N/A   Overcast
4:15 AM 40.1 °F 33.2 °F 30.7 °F 69% 30.00 in 10.0 mi SSE 11.5 mph 17.3 mph N/A   Mostly Cloudy
4:34 AM 40.1 °F 32.0 °F 30.6 °F 69% 29.99 in 10.0 mi SSE 15.0 mph 20.7 mph N/A   Scattered Clouds
4:54 AM 40.3 °F 32.6 °F 30.6 °F 68% 29.98 in 10.0 mi South 13.8 mph 19.6 mph N/A   Clear
5:15 AM 41.0 °F 33.5 °F 30.2 °F 65% 29.97 in 10.0 mi SSE 13.8 mph 21.9 mph N/A   Scattered Clouds
5:34 AM 40.6 °F 32.7 °F 30.2 °F 66% 29.96 in 10.0 mi South 15.0 mph 20.7 mph N/A   Scattered Clouds
5:54 AM 40.1 °F 32.7 °F 30.2 °F 68% 29.95 in 10.0 mi South 12.7 mph 20.7 mph N/A   Clear
6:15 AM 39.9 °F 32.9 °F 30.4 °F 69% 29.94 in 10.0 mi South 11.5 mph 19.6 mph N/A   Clear
6:34 AM 40.1 °F 33.6 °F 30.2 °F 68% 29.93 in 10.0 mi South 10.4 mph - N/A   Clear
6:54 AM 40.5 °F 33.6 °F 30.2 °F 67% 29.93 in 10.0 mi South 11.5 mph 17.3 mph N/A   Clear
7:15 AM 41.2 °F 34.5 °F 30.0 °F 65% 29.92 in 10.0 mi South 11.5 mph 19.6 mph N/A   Clear
7:34 AM 41.5 °F 34.6 °F 30.2 °F 64% 29.91 in 10.0 mi South 12.7 mph 18.4 mph N/A   Clear
7:54 AM 42.8 °F 36.6 °F 30.2 °F 61% 29.91 in 10.0 mi South 11.5 mph 18.4 mph N/A   Mostly Cloudy
8:15 AM 43.9 °F 37.2 °F 30.7 °F 60% 29.90 in 10.0 mi South 13.8 mph 23.0 mph N/A   Overcast
8:34 AM 44.1 °F 36.8 °F 30.7 °F 59% 29.89 in 10.0 mi South 16.1 mph 23.0 mph N/A   Mostly Cloudy
8:54 AM 45.3 °F 38.4 °F 31.1 °F 58% 29.88 in 10.0 mi SSW 16.1 mph 25.3 mph N/A   Scattered Clouds
9:15 AM 46.2 °F 40.1 °F 31.6 °F 57% 29.88 in 10.0 mi SSW 13.8 mph 24.2 mph N/A   Clear
9:34 AM 46.9 °F - 32.0 °F 56% 29.86 in 10.0 mi SSW 12.7 mph 20.7 mph N/A   Clear
9:54 AM 48.2 °F - 32.4 °F 54% 29.85 in 10.0 mi SSW 13.8 mph 24.2 mph N/A   Clear
10:14 AM 49.5 °F - 32.9 °F 53% 29.84 in 10.0 mi SW 15.0 mph 21.9 mph N/A   Clear
10:34 AM 51.1 °F - 34.0 °F 52% 29.84 in 10.0 mi SSW 15.0 mph 23.0 mph N/A   Clear
10:54 AM 52.0 °F - 34.9 °F 52% 29.83 in 10.0 mi SW 16.1 mph 24.2 mph N/A   Clear
11:15 AM 50.9 °F - 34.7 °F 54% 29.82 in 10.0 mi SW 17.3 mph 23.0 mph N/A   Clear
11:34 AM 51.4 °F - 35.4 °F 54% 29.82 in 10.0 mi SW 15.0 mph 20.7 mph N/A   Clear
11:54 AM 53.8 °F - 36.5 °F 52% 29.80 in 10.0 mi SW 15.0 mph 28.8 mph N/A   Clear
12:12 PM 54.7 °F - 36.7 °F 51% 29.80 in 10.0 mi SW 21.9 mph 25.3 mph N/A   Scattered Clouds
12:34 PM 54.7 °F - 37.6 °F 53% 29.79 in 10.0 mi SW 15.0 mph 26.5 mph N/A   Scattered Clouds
12:55 PM 54.5 °F - 37.4 °F 52% 29.79 in 10.0 mi SW 18.4 mph 26.5 mph N/A   Mostly Cloudy
1:14 PM 53.1 °F - 37.8 °F 56% 29.79 in 10.0 mi SW 13.8 mph 27.6 mph N/A   Overcast
1:34 PM 53.2 °F - 38.5 °F 57% 29.78 in 10.0 mi WSW 19.6 mph 27.6 mph N/A   Overcast
1:55 PM 54.1 °F - 39.0 °F 57% 29.78 in 10.0 mi WSW 18.4 mph 24.2 mph N/A   Overcast
2:14 PM 54.1 °F - 39.2 °F 57% 29.78 in 10.0 mi WSW 18.4 mph 28.8 mph N/A   Overcast
2:34 PM 53.2 °F - 39.9 °F 61% 29.79 in 10.0 mi WSW 11.5 mph 23.0 mph N/A   Overcast
2:55 PM 53.4 °F - 39.9 °F 60% 29.79 in 10.0 mi West 20.7 mph 24.2 mph N/A   Overcast
3:14 PM 53.4 °F - 39.9 °F 60% 29.79 in 10.0 mi West 17.3 mph 20.7 mph N/A   Overcast
3:34 PM 53.1 °F - 40.1 °F 61% 29.80 in 10.0 mi WSW 16.1 mph 21.9 mph N/A   Overcast
3:55 PM 52.9 °F - 39.2 °F 60% 29.81 in 10.0 mi West 15.0 mph 32.2 mph N/A   Overcast
4:14 PM 51.8 °F - 39.4 °F 63% 29.83 in 10.0 mi West 20.7 mph 26.5 mph N/A   Overcast
4:34 PM 51.4 °F - 38.8 °F 62% 29.83 in 10.0 mi West 19.6 mph 33.4 mph N/A   Overcast
4:55 PM 51.4 °F - 38.7 °F 62% 29.83 in 10.0 mi WSW 17.3 mph 24.2 mph N/A   Overcast
5:14 PM 51.4 °F - 38.3 °F 61% 29.83 in 10.0 mi West 19.6 mph 28.8 mph N/A   Overcast
5:34 PM 51.4 °F - 38.3 °F 61% 29.84 in 10.0 mi WSW 18.4 mph 27.6 mph N/A   Overcast
5:55 PM 51.4 °F - 38.3 °F 61% 29.84 in 10.0 mi WSW 13.8 mph 21.9 mph N/A   Overcast
6:14 PM 51.4 °F - 38.5 °F 61% 29.85 in 10.0 mi WSW 16.1 mph 19.6 mph N/A   Overcast
6:34 PM 51.4 °F - 38.7 °F 62% 29.85 in 10.0 mi WSW 11.5 mph 19.6 mph N/A   Overcast
6:55 PM 51.6 °F - 38.8 °F 62% 29.85 in 10.0 mi WSW 12.7 mph 21.9 mph N/A   Overcast
7:14 PM 51.6 °F - 38.8 °F 62% 29.85 in 10.0 mi WSW 15.0 mph 21.9 mph N/A   Overcast
7:34 PM 51.4 °F - 39.0 °F 63% 29.86 in 10.0 mi West 12.7 mph 20.7 mph N/A   Overcast
7:55 PM 51.3 °F - 38.8 °F 63% 29.86 in 10.0 mi West 18.4 mph 26.5 mph N/A   Overcast
8:14 PM 50.7 °F - 38.1 °F 62% 29.86 in 10.0 mi West 19.6 mph 32.2 mph N/A   Mostly Cloudy
8:34 PM 49.8 °F - 37.6 °F 63% 29.87 in 10.0 mi West 16.1 mph 26.5 mph N/A   Mostly Cloudy
8:55 PM 48.7 °F - 37.0 °F 64% 29.88 in 10.0 mi West 17.3 mph 24.2 mph N/A   Scattered Clouds
9:14 PM 48.7 °F - 36.5 °F 63% 29.88 in 10.0 mi West 13.8 mph 20.7 mph N/A   Mostly Cloudy
9:35 PM 48.7 °F - 36.0 °F 61% 29.88 in 10.0 mi West 11.5 mph - N/A   Overcast
9:54 PM 48.4 °F - 36.1 °F 63% 29.88 in 10.0 mi West 15.0 mph 18.4 mph N/A   Overcast
10:14 PM 48.2 °F - 36.5 °F 64% 29.88 in 10.0 mi West 13.8 mph 18.4 mph N/A   Overcast
10:35 PM 47.7 °F - 36.9 °F 66% 29.89 in 10.0 mi WNW 16.1 mph 21.9 mph N/A   Overcast
10:54 PM 47.1 °F - 36.0 °F 65% 29.89 in 10.0 mi West 16.1 mph 24.2 mph N/A   Overcast
11:14 PM 46.9 °F - 35.6 °F 65% 29.89 in 10.0 mi West 15.0 mph 21.9 mph N/A   Overcast
11:35 PM 46.8 °F - 35.6 °F 65% 29.89 in 10.0 mi West 13.8 mph 21.9 mph N/A   Overcast
11:54 PM 46.6 °F - 35.6 °F 66% 29.89 in 10.0 mi West 12.7 mph 20.7 mph N/A   Overcast